Wind_Speed
2 1 1 0 1 1 1 2 3 4 4 5 5 5 5 7 8 9 9 9 9 10 9 9 8 6 4 3 1 1 4 6 9 11 13 16 18 20 22 24 27 29 31 33
1 1 1 1 1 2 3 3 3 4 4 4 5 5 5 6 7 8 8 9 9 9 9 8 7 6 4 3 3 4 6 7 9 12 14 15 17 18 20 23 25 27 28 31
3 3 2 3 3 4 4 4 4 5 5 5 5 6 6 7 7 7 8 8 9 8 8 8 7 6 6 6 7 8 9 10 12 14 16 18 19 20 22 24 25 27 29 31
5 5 5 5 5 5 6 6 6 6 6 6 6 7 8 8 9 9 9 9 8 9 8 8 7 8 8 8 8 9 11 13 14 16 17 19 20 21 22 23 25 26 28 30
7 7 7 7 7 7 8 7 7 8 8 8 9 9 10 10 10 11 11 10 10 10 10 10 9 10 10 10 11 12 14 16 17 18 19 20 21 22 23 24 26 27 28 30
10 10 9 9 9 10 10 9 9 10 10 10 11 11 11 12 12 12 12 12 12 12 13 13 13 13 13 13 13 14 16 17 19 20 21 22 22 23 24 26 26 28 28 30
11 12 12 11 11 11 11 11 11 11 12 13 13 14 14 14 13 13 13 13 13 14 15 15 15 16 17 17 17 18 19 20 22 23 23 24 25 26 27 27 28 29 30 32
13 13 13 13 13 13 13 13 14 14 15 15 16 16 16 16 16 15 15 15 16 17 18 18 18 19 19 20 21 22 23 24 25 26 26 26 27 27 28 29 30 31 32 34
14 14 15 15 15 15 15 15 15 16 16 17 17 17 17 18 18 18 18 19 19 19 20 21 21 22 23 23 24 25 26 28 29 29 28 28 28 28 29 30 31 32 33 34
15 15 16 16 16 16 17 16 16 17 18 18 18 18 19 19 20 21 21 21 21 21 22 23 24 25 26 26 27 28 28 29 30 30 30 29 28 29 30 31 32 33 33 34
17 17 18 18 19 19 19 19 19 19 19 20 20 19 20 21 22 22 23 23 24 24 25 26 26 27 28 28 29 30 30 31 31 31 31 30 30 30 31 31 32 33 33 33
18 19 20 20 21 21 22 22 22 23 22 22 23 23 23 23 24 25 25 26 26 26 27 27 28 29 30 30 31 32 32 32 32 31 31 32 32 32 33 33 33 33 33 33
20 20 21 22 22 23 23 24 24 25 25 25 26 26 26 26 27 27 27 28 28 29 29 30 30 31 32 33 33 34 34 33 33 33 33 33 33 34 34 34 34 33 32 31
21 21 22 23 23 24 24 25 26 26 27 28 28 28 28 29 29 30 30 31 31 31 31 32 33 34 34 35 36 36 36 35 34 34 34 34 34 35 34 34 32 31 30 30
22 23 23 24 25 25 25 26 27 27 28 29 30 30 31 31 32 32 33 33 33 34 34 34 35 36 36 37 37 38 37 36 35 35 34 35 35 35 34 33 32 31 30 30
24 24 25 25 26 26 27 27 28 29 30 31 31 32 32 33 34 34 35 36 36 36 37 37 37 37 38 38 38 38 38 37 36 35 35 35 34 33 33 32 32 31 30 29
25 26 27 27 28 28 28 29 30 31 32 32 33 34 35 35 36 36 37 38 38 38 39 39 39 39 38 38 38 38 37 36 36 36 35 34 34 33 32 32 32 31 30 29
27 27 28 28 29 29 30 31 31 32 33 34 34 35 36 37 38 38 39 39 39 40 40 40 40 40 39 39 38 38 37 36 36 35 35 34 33 33 32 32 32 31 31 30
27 28 29 29 30 30 31 32 33 33 33 35 36 37 38 38 39 40 40 40 40 40 40 41 41 41 41 40 39 39 38 37 36 35 35 34 33 33 33 33 32 32 31 30
29 29 30 31 32 32 33 34 35 35 36 37 38 39 39 40 40 40 40 40 41 41 41 41 41 41 41 41 40 39 38 37 36 35 35 34 33 33 33 33 32 32 31 31
31 31 32 32 33 34 35 36 37 37 38 39 40 40 40 40 40 40 40 40 40 40 40 41 41 41 41 40 39 39 38 38 37 36 35 34 33 32 32 32 32 31 31 30
33 33 34 34 35 36 37 38 39 40 40 41 42 42 42 41 41 41 40 40 40 40 40 40 40 40 40 39 39 38 38 37 37 36 36 35 33 32 32 32 31 31 30 30
34 35 35 36 37 38 39 40 41 42 42 42 43 43 43 42 41 40 40 39 39 39 40 40 40 39 39 38 38 37 37 36 36 35 35 34 33 32 31 31 31 30 30 30
36 37 37 38 39 39 40 42 43 43 44 45 45 45 44 42 41 40 40 40 39 39 39 39 39 39 38 38 37 37 36 36 35 35 34 33 32 31 31 31 30 30 30 30
39 39 40 40 40 41 42 43 44 45 46 46 45 44 43 42 40 39 39 39 39 38 38 38 38 38 37 37 36 36 35 35 34 34 33 32 31 31 30 29 29 29 29 29
40 40 41 42 42 43 43 44 45 46 46 46 44 43 41 40 40 39 39 38 38 37 37 37 37 37 36 36 35 35 34 34 33 33 32 31 30 30 29 29 28 28 28 27
40 40 42 42 43 44 45 46 46 45 45 43 42 41 40 39 39 38 38 38 37 37 36 36 36 36 36 35 34 33 32 32 31 31 30 30 29 29 29 28 28 27 27 27
Wind_Direction
134 153 146 55 14 18 13 353 351 358 10 20 25 24 26 29 29 29 25 21 19 20 23 26 25 24 34 46 38 272 260 258 258 261 268 266 264 261 263 264 264 263 261 260
206 215 216 254 298 313 327 323 323 330 341 352 2 359 359 2 6 10 12 10 7 7 8 9 9 6 0 350 337 316 296 288 284 284 286 281 276 274 274 272 269 268 266 266
249 249 253 274 286 293 304 309 309 308 315 324 335 340 342 343 344 349 352 353 352 351 358 2 356 349 336 324 317 315 311 301 296 295 294 290 283 282 280 277 276 273 271 271
262 263 270 275 282 290 296 299 299 297 302 307 312 317 322 326 327 327 330 330 333 340 343 345 344 343 335 324 316 312 310 308 305 303 300 296 292 288 288 285 283 281 279 277
263 267 271 278 284 290 298 298 290 286 288 291 299 303 307 311 316 318 320 322 325 328 331 332 330 327 324 319 316 313 312 311 309 307 304 301 297 295 293 290 288 287 285 284
265 269 272 277 283 289 292 293 288 285 286 290 291 295 299 303 308 311 315 319 322 323 326 327 325 322 319 316 315 314 312 309 309 309 307 305 301 299 298 296 295 292 291 289
269 271 273 274 280 285 288 290 288 287 285 287 287 289 292 297 300 303 307 311 314 316 318 318 319 318 318 315 314 315 315 312 311 310 309 306 302 300 299 297 296 296 294 293
269 272 273 274 278 282 285 287 289 289 287 285 285 286 289 292 294 296 298 301 305 308 311 312 313 313 313 312 310 310 312 312 312 311 309 306 302 300 299 298 297 296 296 296
271 272 273 274 276 279 283 287 288 288 289 288 286 286 287 288 290 291 292 295 298 301 303 305 307 309 310 309 308 308 309 310 310 309 309 306 302 300 298 298 299 297 297 297
272 273 275 274 275 278 281 283 285 287 289 289 289 286 285 286 287 289 290 292 292 294 297 299 301 303 306 308 307 308 308 309 309 308 307 306 303 302 301 301 301 300 299 298
271 271 273 275 276 279 281 283 283 284 286 287 287 287 286 287 287 288 290 292 291 292 293 295 297 299 303 305 306 306 308 308 308 307 307 306 305 304 303 302 302 301 301 299
274 271 272 274 277 278 280 283 283 283 284 285 286 286 286 286 287 287 289 291 292 292 293 296 297 298 300 302 304 304 305 305 305 305 304 305 305 305 304 303 301 300 301 301
278 274 274 275 277 279 281 283 283 283 283 283 284 285 286 286 287 287 289 291 292 293 294 295 297 299 299 300 301 302 302 301 301 302 302 304 304 305 304 302 301 301 300 300
280 279 277 277 278 280 283 284 285 284 283 282 283 284 285 285 285 286 287 289 291 292 294 295 297 298 299 299 300 300 299 297 296 297 299 301 303 303 303 302 301 299 299 298
282 282 281 281 281 282 284 285 286 286 285 284 283 284 285 285 285 284 285 287 289 291 293 295 297 298 298 299 299 299 297 294 293 294 296 299 301 302 303 301 300 298 297 298
284 284 284 284 284 285 286 287 288 288 288 287 286 286 285 285 285 284 284 285 287 289 291 294 295 296 297 298 299 299 296 292 291 292 294 297 299 299 299 299 299 298 296 295
285 285 285 285 285 286 288 289 290 290 289 288 288 288 287 287 286 285 284 285 286 288 290 291 292 294 296 297 298 298 296 294 291 289 291 294 296 296 296 296 296 297 295 293
286 286 286 286 286 287 287 289 291 291 291 291 290 289 289 289 288 287 285 285 286 287 288 289 291 292 294 295 296 296 295 293 291 289 289 290 292 294 293 294 294 294 294 291
287 287 286 286 285 286 287 288 289 291 292 293 294 292 291 290 289 289 288 287 287 287 287 288 290 291 292 294 294 294 293 291 290 289 288 289 290 292 292 293 292 291 292 291
287 287 288 287 287 286 287 288 289 290 292 294 296 296 294 292 290 290 290 289 288 287 287 288 289 291 292 293 293 293 292 291 290 289 288 288 289 290 291 292 291 290 290 289
286 287 287 288 288 288 288 288 289 290 292 293 295 296 295 294 292 291 290 289 289 289 289 289 290 291 292 292 293 292 292 290 289 288 287 287 288 290 291 291 291 290 291 290
285 286 288 289 289 289 289 290 290 292 292 293 294 295 295 294 293 291 290 289 288 289 290 291 291 291 292 293 293 292 292 291 289 287 286 285 286 288 289 290 290 289 289 290
285 287 288 290 290 290 290 291 292 292 293 294 295 295 294 293 292 290 290 289 288 288 289 290 290 291 292 293 293 292 291 290 289 287 285 285 286 287 288 288 289 288 287 287
285 287 289 291 292 292 292 292 292 292 293 295 295 295 294 292 291 290 289 288 288 288 289 289 289 290 291 291 291 291 291 289 288 286 284 284 285 285 286 287 288 288 287 286
286 287 289 291 292 293 293 294 294 294 294 295 294 294 293 291 289 288 289 290 289 288 288 289 289 289 290 290 290 290 290 289 288 286 283 283 283 283 284 285 287 288 288 287
287 288 289 290 291 292 293 294 295 295 295 295 294 292 291 289 288 288 288 289 288 288 288 288 289 289 289 289 289 289 289 288 288 286 284 282 281 282 282 283 285 286 286 287
288 289 289 290 291 292 293 294 296 296 295 295 293 291 289 288 287 287 287 286 286 287 287 288 288 288 288 288 287 288 288 288 288 286 284 282 281 280 281 281 282 284 285 285
Height
5659 5658 5658 5658 5658 5657 5656 5655 5654 5653 5651 5649 5647 5645 5644 5642 5640 5638 5635 5632 5630 5627 5625 5622 5620 5618 5617 5617 5616 5616 5616 5617 5617 5617 5617 5617 5617 5617 5618 5617 5617 5617 5618 5618
5659 5658 5658 5658 5657 5656 5655 5654 5653 5652 5651 5649 5647 5645 5644 5642 5640 5638 5635 5633 5630 5628 5626 5623 5622 5620 5619 5618 5618 5617 5616 5616 5615 5614 5614 5613 5612 5611 5611 5610 5609 5609 5608 5608
5659 5658 5658 5658 5657 5656 5655 5654 5653 5651 5651 5649 5647 5645 5644 5642 5640 5637 5635 5633 5630 5628 5626 5624 5622 5621 5619 5618 5617 5616 5615 5614 5613 5611 5610 5608 5607 5605 5604 5603 5601 5600 5600 5600
5657 5658 5657 5659 5655 5654 5654 5652 5651 5650 5649 5647 5646 5645 5643 5641 5639 5637 5634 5632 5630 5627 5625 5623 5622 5620 5618 5617 5616 5614 5613 5611 5610 5608 5606 5604 5601 5599 5597 5596 5594 5592 5591 5590
5656 5655 5655 5656 5654 5652 5652 5651 5649 5648 5647 5646 5644 5643 5641 5639 5637 5635 5632 5630 5628 5626 5624 5622 5620 5619 5617 5615 5613 5612 5610 5608 5606 5604 5601 5599 5596 5593 5591 5588 5586 5584 5582 5581
5653 5653 5653 5654 5652 5650 5650 5648 5647 5645 5644 5643 5642 5641 5640 5637 5635 5632 5630 5628 5626 5624 5622 5620 5618 5616 5614 5613 5611 5609 5607 5604 5602 5599 5596 5593 5590 5587 5584 5581 5579 5576 5574 5572
5650 5649 5650 5650 5648 5647 5648 5647 5644 5642 5641 5640 5639 5638 5636 5633 5631 5629 5628 5626 5624 5622 5620 5618 5616 5613 5611 5609 5607 5605 5602 5599 5596 5593 5590 5586 5583 5580 5577 5574 5571 5568 5565 5562
5646 5646 5648 5645 5644 5644 5644 5641 5640 5638 5637 5636 5634 5633 5631 5629 5627 5626 5624 5622 5620 5618 5616 5614 5612 5610 5607 5605 5602 5599 5596 5593 5590 5586 5583 5579 5576 5572 5569 5566 5563 5560 5556 5552
5643 5644 5642 5640 5640 5639 5638 5637 5635 5634 5633 5631 5630 5628 5626 5625 5623 5621 5620 5618 5616 5614 5612 5609 5607 5605 5602 5599 5596 5593 5590 5586 5582 5578 5575 5571 5568 5564 5561 5558 5555 5551 5547 5543
5638 5638 5637 5636 5635 5634 5633 5632 5631 5629 5628 5626 5624 5623 5621 5620 5618 5616 5614 5612 5610 5608 5606 5604 5601 5599 5596 5593 5589 5586 5583 5579 5574 5570 5566 5563 5560 5556 5553 5549 5545 5541 5537 5533
5633 5633 5632 5631 5630 5629 5628 5626 5625 5624 5622 5620 5619 5617 5615 5613 5612 5610 5608 5606 5604 5601 5599 5597 5594 5592 5588 5585 5582 5579 5575 5571 5566 5562 5558 5555 5551 5548 5544 5540 5536 5532 5528 5523
5628 5627 5626 5625 5624 5623 5622 5620 5619 5617 5616 5614 5612 5610 5608 5607 5605 5603 5601 5599 5596 5594 5591 5589 5586 5583 5580 5577 5573 5570 5566 5562 5558 5554 5550 5546 5542 5538 5534 5530 5526 5522 5517 5513
5622 5620 5619 5618 5617 5616 5615 5613 5612 5610 5608 5606 5605 5603 5601 5599 5597 5595 5593 5591 5588 5586 5583 5580 5578 5575 5571 5568 5564 5560 5556 5552 5548 5545 5541 5537 5533 5529 5525 5521 5516 5512 5508 5504
5614 5613 5612 5611 5610 5609 5607 5606 5604 5602 5600 5598 5597 5595 5593 5591 5589 5586 5584 5582 5580 5577 5574 5571 5568 5565 5561 5558 5554 5550 5546 5542 5538 5535 5531 5527 5523 5519 5515 5511 5507 5503 5500 5496
5607 5606 5605 5604 5603 5601 5599 5598 5596 5594 5592 5590 5588 5586 5584 5582 5579 5577 5575 5572 5570 5567 5565 5562 5558 5555 5551 5547 5543 5539 5535 5531 5528 5524 5521 5517 5513 5509 5505 5502 5498 5494 5491 5488
5599 5598 5597 5596 5594 5593 5591 5589 5587 5585 5582 5580 5578 5576 5574 5572 5569 5567 5564 5562 5559 5557 5554 5551 5548 5544 5540 5536 5532 5528 5523 5520 5517 5513 5510 5507 5503 5500 5496 5493 5489 5486 5483 5480
5591 5590 5588 5587 5585 5584 5582 5580 5578 5575 5573 5570 5568 5566 5563 5561 5558 5555 5553 5550 5548 5545 5542 5539 5536 5532 5528 5525 5521 5517 5512 5509 5506 5503 5500 5496 5493 5490 5487 5484 5480 5477 5474 5471
5583 5581 5580 5578 5576 5574 5572 5570 5568 5565 5563 5560 5558 5555 5552 5549 5547 5544 5541 5538 5535 5532 5529 5526 5523 5520 5517 5513 5509 5505 5501 5498 5494 5491 5489 5486 5483 5480 5477 5474 5471 5468 5465 5462
5574 5572 5571 5568 5566 5564 5562 5560 5558 5555 5552 5549 5547 5544 5540 5537 5535 5532 5528 5526 5523 5520 5517 5514 5511 5507 5504 5500 5497 5493 5489 5486 5483 5480 5478 5475 5472 5470 5467 5464 5461 5458 5455 5453
5565 5563 5561 5559 5556 5554 5552 5549 5547 5544 5541 5538 5535 5532 5528 5525 5522 5519 5516 5513 5510 5507 5504 5501 5498 5495 5491 5488 5484 5481 5477 5474 5471 5469 5467 5464 5462 5459 5457 5454 5451 5448 5446 5443
5555 5553 5551 5548 5546 5543 5540 5538 5535 5532 5529 5526 5522 5519 5516 5512 5509 5505 5502 5500 5497 5494 5491 5488 5485 5482 5478 5475 5472 5468 5465 5462 5460 5458 5455 5453 5451 5449 5446 5444 5441 5439 5436 5434
5544 5542 5540 5537 5534 5532 5529 5526 5523 5520 5516 5513 5509 5506 5502 5499 5495 5492 5489 5487 5484 5481 5478 5475 5472 5469 5466 5463 5460 5457 5454 5451 5448 5446 5444 5442 5440 5438 5436 5433 5431 5429 5427 5424
5533 5530 5528 5525 5522 5519 5516 5513 5510 5506 5503 5499 5496 5492 5488 5485 5482 5479 5476 5474 5471 5468 5465 5463 5460 5457 5453 5450 5448 5445 5442 5439 5436 5434 5433 5431 5429 5427 5425 5423 5421 5419 5417 5415
5521 5518 5516 5513 5510 5507 5504 5500 5497 5493 5489 5485 5481 5477 5474 5471 5468 5465 5463 5460 5457 5455 5452 5449 5446 5444 5441 5438 5436 5433 5430 5428 5425 5423 5421 5420 5418 5416 5415 5413 5411 5409 5407 5405
5508 5506 5503 5500 5497 5494 5490 5487 5483 5479 5475 5471 5467 5463 5460 5457 5454 5452 5449 5447 5444 5442 5439 5437 5434 5431 5429 5426 5424 5421 5418 5416 5413 5411 5410 5409 5407 5406 5404 5402 5401 5399 5397 5395
5495 5493 5490 5487 5484 5480 5477 5473 5469 5464 5460 5456 5452 5449 5446 5443 5440 5438 5436 5433 5431 5428 5426 5424 5421 5419 5416 5414 5412 5409 5407 5404 5402 5401 5399 5398 5396 5395 5394 5392 5391 5389 5388 5386
5483 5480 5477 5474 5471 5467 5463 5459 5454 5450 5445 5441 5438 5435 5432 5430 5427 5425 5422 5420 5418 5416 5413 5411 5409 5406 5404 5402 5400 5398 5395 5393 5392 5390 5388 5387 5386 5385 5384 5383 5381 5380 5378 5377